Location: Unspecified
(0.0000°N, 0.0000°E)
Time: 20:07:43
(UTC+00:00)

Courier 1B - Pass Details

Date: 25 November 2019
Orbit: 962 x 1209 km, 28.3° (Epoch: 13 July)

Event Time Altitude Azimuth Distance (km) Brightness Sun altitude
Rises 23:44:02 0° 249° (WSW) 4,093 - -69.1°
Reaches altitude 10° 23:46:56 10° 252° (WSW) 3,138 - -69.2°
Maximum altitude 23:54:38 58° 330° (NNW) 1,379 - -69.1°
Drops below altitude 10° 00:02:13 10° 47° (NE) 3,088 - -68.8°
Sets 00:05:03 0° 52° (NE) 4,023 - -68.7°
